Weather in Mishchenskiy

Russia / Stavropol Krai     44°35′55″N   41°36′13″E
temp.,
°C
wind,
m/s
gust,
m/s
humid.,
%
clouds,
%
prec.,
mm/h
press.,
hPa
HPBL,
m
7 august, sun
sun700:00+17ese513700 0.0 1011353
03:00+15ese412850 0.0 1010298
06:00+16e413861 0.0 1011427
09:00+23e915520 0.0 10101353
12:00+27e9104492 0.0 10091823
15:00+25e894996 0.0 10101722
18:00+24ese6114655 0.0 10101297
21:00+18ese34730 0.0 101173
8 august, mon
mon800:00+17e38830 0.0 1011159
03:00+16ese23880 0.0 101244
06:00+16ese28861 0.0 1013219
09:00+23e6105542 0.0 1013917
12:00+28e1010300 0.0 10122112
15:00+30e910251 0.0 10122566
18:00+26ese811360 0.0 10131763
21:00+22e613380 0.0 1014434
9 august, tue
tue900:00+19e414490 0.0 1014344
03:00+16ese36680 0.0 101499
06:00+16se39740 0.0 1015188
09:00+27e813290 0.0 10131595
12:00+30e911210 0.0 10122349
15:00+32e911220 0.0 10102720
18:00+30e911230 0.0 10102569
21:00+25e816300 0.0 1011640
10 august, wed
wed1000:00+23e817370 0.0 1010596
03:00+21ese616470 0.0 1010486
06:00+18e515600 0.0 1010450
09:00+26e1015380 0.0 10091211
12:00+32e1213230 0.0 10071936
15:00+34e1012200 0.0 10052228
18:00+33ese812220 0.0 10052204
21:00+28e1118274 0.0 10061096
11 august, thu
thu1100:00+24e917395 0.0 1006697
03:00+19ese513564 0.0 1007351
06:00+18ese356498 0.0 1008147
09:00+26se324385 0.0 1008605
12:00+31nne2332100 0.0 10071665
15:00+33ne232899 0.0 10061827
18:00+32nne342866 0.0 1006483
21:00+23wsw01555 0.6 100713